Find PAS 8

NORAD ID: 25522 Int'l Des: 1998-065 Owner: PAN Country: US operational
HEO

リアルタイム位置

3D地球を読み込み中...

PAS 8について

説明を読み込み中...

次回通過

Passes for default location (London). Set your location on the main map for personalized predictions.

高度履歴

Loading altitude history...

軌道要素

1 25522U 98065A 26104.34970808 -.00000076 00000-0 00000+0 0 9999
2 25522 8.9843 64.2763 0286461 304.2811 219.1375 0.95185241 44207
Epoch: Apr 14, 2026 • Age: 19 hours

現在のステータス

高度 38211.5 km
速度 2.96 km/s
衛星直下点 8.92°N, 113.49°W
打ち上げ日 Nov 4, 1998
運用期間 27.4 years
タイプ other

技術仕様

分類 Payload
質量 3800.00 kg
乾燥質量 1400.00 kg
総質量 3800.00 kg
長さ 6.10 m
直径 2.40 m
スパン 26.00 m
形状 Box + 2 Pan
製造者 LOR
バスタイプ FS-1300
フェーズステータス Unknown Active Status
所有者/国 PAN/US

Most Searched